Location: Newark
(45.9456°N, 15.4064°E)
Time: 06:41:39
(UTC+00:00)

Vanguard 3 - Pass Details

Date: 25 January 2020
Orbit: 508 x 3263 km, 33.3° (Epoch: 27 February)

Event Time Altitude Azimuth Distance (km) Brightness Sun altitude
Rises 22:39:43 0° 276° (W) 6,565 11.9 -62.2°
Enters shadow 22:45:37 - 264° (W) 5,207 11.2 -62.5°
Reaches altitude 10° 22:46:24 10° 261° (W) 5,032 - -62.5°
Maximum altitude 22:54:16 18° 226° (SW) 3,655 - -62.8°
Drops below altitude 10° 23:00:11 10° 188° (S) 3,597 - -62.9°
Sets 23:03:51 0° 169° (S) 4,130 - -62.9°
